Погода в Заречном

Украина / Харьковская область     50°06′11″N   36°50′42″E
темп.,
°C
ветер,
м/с
пор.,
м/с
влажн.,
%
обл.,
%
осадки,
мм/ч
давл.,
гПа
погр.,
м
8 мая, сб
сб800:00+10юв5146898 0.0 1014319
03:00+12ююв7156399 0.0 1012493
06:00+11ююв51270100 0.1 1011416
09:00+12ююв61480100 0.3 1009548
12:00+12ю71590100 1.9 10081057
15:00+13ююз81491100 7.0 1008832
18:00+12зюз71186100 0.2 1008832
21:00+7зсз81487100 0.3 1012711
9 мая, вс
вс900:00+6сз71281100 0.0 1013971
03:00+6сз51085100 0.0 1015649
06:00+6сз71074100 0.0 1016999
09:00+7ссз81165100 0.0 10181087
12:00+11ссз810505 0.0 10191870
15:00+12ссз8104599 0.0 10202492
18:00+11ссз6105819 0.0 10221908
21:00+6ссз357470 0.1 102578
10 мая, пн
пн1000:00+5ссз48810 0.0 1026165
03:00+4ссз49830 0.0 1027175
06:00+4ссз411790 0.0 1028278
09:00+10с610601 0.0 1028952
12:00+13с810475 0.0 10272042
15:00+14с8114524 0.0 10252073
18:00+13с71257100 0.0 10241412
21:00+9с6146434 0.0 1025518
11 мая, вт
вт1100:00+9с81564100 0.0 1022763
03:00+9с81671100 0.3 1021784
06:00+9ссв81670100 0.1 1020695
09:00+9ссв81579100 0.1 1020516
12:00+10св71387100 0.1 1020752
15:00+12всв7117968 0.4 10201201
18:00+11всв6126788 0.1 10221567
21:00+8ссв498312 0.1 1021191
12 мая, ср
ср1200:00+8всв6147883 0.0 1020716
03:00+7всв6138338 0.0 1019697
06:00+8в81385100 0.2 10181192
09:00+9вюв7128593 0.6 10181000
12:00+10вюв81386100 0.7 10191273
15:00+11юв6118090 1.2 1019960
18:00+10вюв51089100 1.0 1019627
21:00+9вюв3795100 2.8 1019241